TimeCDT,TemperatureF,Dew PointF,Humidity,Sea Level PressureIn,VisibilityMPH,Wind Direction,Wind SpeedMPH,Gust SpeedMPH,PrecipitationIn,Events,Conditions,WindDirDegrees,DateUTC
12:15 AM,19.4,10.4,68,29.95,10.0,SSE,9.2,-,N/A,,Overcast,150,2013-03-18 05:15:00
12:35 AM,19.4,10.4,68,29.95,10.0,SSE,10.4,-,N/A,,Overcast,150,2013-03-18 05:35:00
12:55 AM,17.6,10.4,73,29.94,10.0,SE,12.7,-,N/A,,Overcast,140,2013-03-18 05:55:00
1:15 AM,17.6,10.4,73,29.94,10.0,SSE,8.1,-,N/A,,Overcast,150,2013-03-18 06:15:00
1:35 AM,17.6,10.4,73,29.93,10.0,SSE,10.4,18.4,N/A,,Overcast,150,2013-03-18 06:35:00
1:55 AM,17.6,10.4,73,29.93,10.0,SSE,10.4,17.3,N/A,,Overcast,150,2013-03-18 06:55:00
2:15 AM,17.6,12.2,79,29.91,10.0,SSE,10.4,16.1,N/A,,Overcast,150,2013-03-18 07:15:00
2:35 AM,19.4,12.2,74,29.90,10.0,SE,9.2,-,N/A,,Overcast,140,2013-03-18 07:35:00
2:55 AM,19.4,14.0,80,29.89,10.0,SSE,10.4,-,N/A,,Mostly Cloudy,150,2013-03-18 07:55:00
3:15 AM,19.4,14.0,80,29.88,10.0,SSE,9.2,-,N/A,,Scattered Clouds,150,2013-03-18 08:15:00
3:35 AM,19.4,14.0,80,29.87,10.0,SE,10.4,20.7,N/A,,Clear,140,2013-03-18 08:35:00
3:55 AM,19.4,15.8,86,29.86,10.0,SE,9.2,17.3,N/A,,Scattered Clouds,140,2013-03-18 08:55:00
4:15 AM,19.4,15.8,86,29.84,10.0,SSE,11.5,-,N/A,,Overcast,150,2013-03-18 09:15:00
4:35 AM,19.4,14.0,80,29.84,10.0,SSE,11.5,17.3,N/A,,Overcast,150,2013-03-18 09:35:00
4:55 AM,19.4,14.0,80,29.82,10.0,SE,9.2,-,N/A,,Overcast,140,2013-03-18 09:55:00
5:15 AM,19.4,14.0,80,29.81,10.0,SSE,11.5,18.4,N/A,,Overcast,150,2013-03-18 10:15:00
5:35 AM,19.4,15.8,86,29.80,10.0,SSE,9.2,17.3,N/A,,Overcast,150,2013-03-18 10:35:00
5:55 AM,19.4,15.8,86,29.79,10.0,SE,9.2,-,N/A,,Mostly Cloudy,140,2013-03-18 10:55:00
6:15 AM,19.4,15.8,86,29.77,10.0,SE,11.5,17.3,N/A,,Scattered Clouds,140,2013-03-18 11:15:00
6:35 AM,21.2,17.6,86,29.76,10.0,SE,11.5,-,N/A,,Clear,140,2013-03-18 11:35:00
6:55 AM,23.0,19.4,86,29.74,10.0,SSE,15.0,21.9,N/A,,Mostly Cloudy,150,2013-03-18 11:55:00
7:15 AM,21.2,19.4,93,29.74,10.0,SSE,15.0,21.9,N/A,,Overcast,150,2013-03-18 12:15:00
7:35 AM,23.0,19.4,86,29.72,10.0,SE,15.0,25.3,N/A,,Overcast,140,2013-03-18 12:35:00
7:55 AM,23.0,19.4,86,29.73,10.0,SSE,11.5,17.3,N/A,,Overcast,150,2013-03-18 12:55:00
8:15 AM,23.0,19.4,86,29.72,10.0,SSE,15.0,24.2,N/A,,Overcast,150,2013-03-18 13:15:00
8:35 AM,23.0,19.4,86,29.71,10.0,SSE,11.5,18.4,N/A,,Overcast,150,2013-03-18 13:35:00
8:55 AM,23.0,19.4,86,29.71,10.0,South,12.7,18.4,N/A,,Overcast,170,2013-03-18 13:55:00
9:15 AM,23.0,19.4,86,29.70,10.0,SSE,11.5,17.3,N/A,,Overcast,150,2013-03-18 14:15:00
9:35 AM,23.0,17.6,80,29.70,10.0,SSE,9.2,17.3,N/A,,Overcast,160,2013-03-18 14:35:00
9:55 AM,23.0,17.6,80,29.69,10.0,SSE,11.5,16.1,N/A,,Overcast,150,2013-03-18 14:55:00
10:15 AM,23.0,19.4,86,29.68,10.0,SSE,12.7,16.1,N/A,,Overcast,160,2013-03-18 15:15:00
10:35 AM,23.0,19.4,86,29.67,10.0,SSE,12.7,17.3,N/A,,Overcast,150,2013-03-18 15:35:00
10:55 AM,24.8,19.4,80,29.65,10.0,SSE,15.0,19.6,N/A,,Overcast,160,2013-03-18 15:55:00
11:15 AM,26.6,19.4,74,29.63,10.0,SSE,13.8,-,N/A,,Mostly Cloudy,150,2013-03-18 16:15:00
11:35 AM,26.6,19.4,74,29.62,10.0,SSE,15.0,21.9,N/A,,Mostly Cloudy,160,2013-03-18 16:35:00
11:55 AM,28.4,19.4,69,29.60,10.0,SE,12.7,16.1,N/A,,Mostly Cloudy,140,2013-03-18 16:55:00
12:15 PM,28.4,19.4,69,29.60,10.0,SSE,9.2,16.1,N/A,,Overcast,150,2013-03-18 17:15:00
12:35 PM,28.4,21.2,74,29.58,10.0,SSE,6.9,-,N/A,,Overcast,160,2013-03-18 17:35:00
12:55 PM,28.4,21.2,74,29.57,3.0,South,10.4,-,N/A,Snow,Light Snow,170,2013-03-18 17:55:00
1:15 PM,26.6,21.2,80,29.56,1.0,South,5.8,-,N/A,Snow,Light Snow,170,2013-03-18 18:15:00
1:35 PM,26.6,23.0,86,29.56,0.8,SSE,5.8,-,N/A,Snow,Light Snow,160,2013-03-18 18:35:00
1:55 PM,26.6,23.0,86,29.55,1.0,SSE,9.2,-,N/A,Snow,Light Snow,150,2013-03-18 18:55:00
2:15 PM,28.4,23.0,80,29.53,1.0,SSE,10.4,-,N/A,Snow,Light Snow,160,2013-03-18 19:15:00
2:35 PM,28.4,23.0,80,29.52,1.0,SSE,9.2,-,N/A,Snow,Light Snow,150,2013-03-18 19:35:00
2:55 PM,28.4,23.0,80,29.51,1.5,SSE,6.9,-,N/A,Snow,Light Snow,160,2013-03-18 19:55:00
3:15 PM,28.4,24.8,86,29.50,0.8,SSE,6.9,-,0.01,Snow,Light Snow,150,2013-03-18 20:15:00
3:35 PM,28.4,26.6,93,29.49,1.0,SSE,6.9,-,0.01,Snow,Light Snow,150,2013-03-18 20:35:00
3:55 PM,28.4,24.8,86,29.49,0.8,SSE,8.1,-,0.02,Snow,Light Snow,150,2013-03-18 20:55:00
4:15 PM,28.4,24.8,86,29.49,1.0,SSE,5.8,-,N/A,Snow,Light Snow,160,2013-03-18 21:15:00
4:35 PM,28.4,26.6,93,29.48,1.0,South,6.9,-,N/A,Snow,Light Snow,180,2013-03-18 21:35:00
4:55 PM,28.4,23.0,80,29.48,1.2,South,6.9,-,N/A,Snow,Light Snow,170,2013-03-18 21:55:00
5:15 PM,28.4,23.0,80,29.48,1.2,SSE,8.1,-,N/A,Snow,Light Snow,160,2013-03-18 22:15:00
5:35 PM,28.4,23.0,80,29.48,1.5,SSE,5.8,-,N/A,Snow,Light Snow,160,2013-03-18 22:35:00
5:55 PM,28.4,24.8,86,29.47,3.0,South,6.9,-,N/A,Snow,Light Snow,180,2013-03-18 22:55:00
6:15 PM,28.4,23.0,80,29.47,1.0,South,4.6,-,0.01,Snow,Light Snow,170,2013-03-18 23:15:00
6:35 PM,28.4,24.8,86,29.46,1.0,South,4.6,-,0.01,Snow,Light Snow,190,2013-03-18 23:35:00
6:55 PM,28.4,24.8,86,29.46,1.2,Calm,Calm,-,0.01,Snow,Light Snow,0,2013-03-18 23:55:00
7:15 PM,28.4,24.8,86,29.46,1.0,Calm,Calm,-,N/A,Snow,Light Snow,0,2013-03-19 00:15:00
7:35 PM,28.4,24.8,86,29.45,1.2,Calm,Calm,-,N/A,Snow,Light Snow,0,2013-03-19 00:35:00
7:55 PM,28.4,24.8,86,29.45,2.0,SSW,3.5,-,N/A,Snow,Light Snow,200,2013-03-19 00:55:00
8:15 PM,28.4,24.8,86,29.45,2.0,SSW,5.8,-,N/A,Snow,Light Snow,200,2013-03-19 01:15:00
8:35 PM,26.6,23.0,86,29.45,1.8,West,12.7,19.6,N/A,Snow,Light Snow,260,2013-03-19 01:35:00
8:55 PM,23.0,19.4,86,29.47,5.0,West,12.7,21.9,N/A,Snow,Light Snow,280,2013-03-19 01:55:00
9:15 PM,23.0,17.6,80,29.47,7.0,West,11.5,16.1,N/A,Snow,Light Snow,270,2013-03-19 02:15:00
9:35 PM,23.0,17.6,80,29.47,7.0,WNW,10.4,19.6,N/A,Snow,Light Snow,290,2013-03-19 02:35:00
9:55 PM,21.2,15.8,80,29.48,10.0,WNW,11.5,16.1,N/A,Snow,Light Snow,290,2013-03-19 02:55:00
10:15 PM,19.4,14.0,80,29.48,5.0,West,9.2,16.1,N/A,Snow,Light Snow,280,2013-03-19 03:15:00
10:55 PM,19.4,14.0,80,29.49,2.5,WNW,9.2,-,N/A,Snow,Light Snow,290,2013-03-19 03:55:00
11:15 PM,17.6,12.2,79,29.48,4.0,West,8.1,-,N/A,Snow,Light Snow,270,2013-03-19 04:15:00
11:35 PM,17.6,12.2,79,29.48,2.0,West,8.1,-,N/A,Snow,Light Snow,270,2013-03-19 04:35:00
11:55 PM,17.6,12.2,79,29.48,4.0,West,9.2,-,N/A,Snow,Light Snow,260,2013-03-19 04:55:00